Weather in Sao Carlos

Brazil     22°00′52″S   47°53′26″W
temp.,
°C
wind,
m/s
gust,
m/s
humid.,
%
clouds,
%
prec.,
mm/h
press.,
hPa
HPBL,
m
17 may, mon
mon1700:00+15se22773 0.0 101917
03:00+14ese227922 0.0 101814
06:00+13e118315 0.0 101811
09:00+20ssw01565 0.0 1019310
12:00+25wsw46390 0.0 10171746
15:00+26wsw463271 0.0 10142087
18:00+19s224968 0.0 101513
21:00+17sse11551 0.0 101711
18 may, tue
tue1800:00+16ese11610 0.0 101711
03:00+15se11660 0.0 101610
06:00+14se11720 0.0 101610
09:00+21ene11510 0.0 1018323
12:00+26w35360 0.0 10161680
15:00+26wsw35320 0.0 10132192
18:00+19sse22550 0.0 101421
21:00+17ese22590 0.0 101611
19 may, wed
wed1900:00+15se22670 0.0 101613
03:00+14ese22750 0.0 101618
06:00+13ese22805 0.0 101615
09:00+21ene115414 0.0 1017296
12:00+27w46345 0.0 10151792
15:00+28wsw452769 0.0 10122322
18:00+20sse2247100 0.0 101317
21:00+18sse23533 0.0 101526
20 may, thu
thu2000:00+16ese33645 0.0 101524
03:00+15e227152 0.0 101512
06:00+15e2270100 0.0 101511
09:00+23ene11469 0.0 1016259
12:00+28nw35295 0.0 10151725
15:00+29wsw47255 0.0 10123012
18:00+21sse33425 0.0 101323
21:00+20se34452 0.0 101446
21 may, fri
fri2100:00+18e335347 0.0 101432
03:00+18e335323 0.0 101326
06:00+17ene22555 0.0 101319
09:00+24ne47375 0.0 1014337
12:00+30n46236 0.0 10122453
15:00+31nw57199 0.0 10093436
18:00+24n22308 0.0 101011
21:00+21ne22334 0.0 101112